Schneifelwetter: Wetterstation Hallschlag, 537 m . NN
Wetterdaten: Mittwoch, 01.12.2010
Datum Zeit Temp. A. Feuchte A. Luftdruck Regen Wind Richtung Richtung Sonnenschein Helligkeit T Regen Taupunkt Windchill
01.12.2010 00:01 -6,0 C 92 % 1003 hPa 0,0 l/m 28,3 km/h (4 Bft) O-NO45 65 0 min 0 lux 0,00 min -7,1 C -21,2 C
01.12.2010 00:16 -6,1 C 91 % 1003 hPa 0,0 l/m 30,8 km/h (5 Bft) O-NO67.5 75 0 min 0 lux 0,00 min -7,3 C -22,3 C
01.12.2010 00:31 -6,2 C 91 % 1003 hPa 0,0 l/m 32,0 km/h (5 Bft) NO45 55 0 min 0 lux 0,00 min -7,4 C -22,8 C
01.12.2010 00:46 -6,3 C 91 % 1003 hPa 0,0 l/m 31,1 km/h (5 Bft) O-NO45 60 0 min 0 lux 0,00 min -7,5 C -22,7 C
01.12.2010 01:01 -6,3 C 91 % 1003 hPa 0,0 l/m 28,5 km/h (4 Bft) O-NO22.5 75 0 min 0 lux 0,00 min -7,5 C -21,7 C
01.12.2010 01:16 -6,4 C 91 % 1003 hPa 0,0 l/m 27,9 km/h (4 Bft) O-NO45 60 0 min 0 lux 0,00 min -7,6 C -21,6 C
01.12.2010 01:31 -6,4 C 91 % 1003 hPa 0,0 l/m 31,0 km/h (5 Bft) O-NO45 75 0 min 0 lux 0,00 min -7,6 C -22,8 C
01.12.2010 01:46 -6,5 C 92 % 1002 hPa 0,0 l/m 28,5 km/h (4 Bft) O45 85 0 min 0 lux 0,00 min -7,6 C -22,0 C
01.12.2010 02:01 -6,6 C 92 % 1002 hPa 0,0 l/m 33,0 km/h (5 Bft) O-NO45 70 0 min 0 lux 0,00 min -7,7 C -23,7 C
01.12.2010 02:16 -6,7 C 92 % 1002 hPa 0,0 l/m 29,5 km/h (5 Bft) O-NO67.5 75 0 min 0 lux 0,00 min -7,8 C -22,6 C
01.12.2010 02:31 -6,8 C 92 % 1002 hPa 0,0 l/m 37,0 km/h (5 Bft) O-NO45 65 0 min 0 lux 0,00 min -7,9 C -25,2 C
01.12.2010 02:46 -6,9 C 92 % 1002 hPa 0,0 l/m 37,6 km/h (5 Bft) O-NO22.5 60 0 min 0 lux 0,00 min -8,0 C -25,5 C
01.12.2010 03:01 -7,0 C 92 % 1001 hPa 0,0 l/m 36,3 km/h (5 Bft) O-NO67.5 60 0 min 0 lux 0,00 min -8,1 C -25,3 C
01.12.2010 03:16 -7,2 C 93 % 1001 hPa 0,0 l/m 40,5 km/h (6 Bft) NO67.5 55 0 min 0 lux 0,00 min -8,1 C -26,7 C
01.12.2010 03:31 -7,4 C 93 % 1001 hPa 0,0 l/m 38,0 km/h (5 Bft) NO45 45 0 min 0 lux 0,00 min -8,3 C -26,4 C
01.12.2010 03:46 -7,5 C 92 % 1001 hPa 0,0 l/m 36,8 km/h (5 Bft) O-NO45 60 0 min 0 lux 0,00 min -8,6 C -26,2 C
01.12.2010 04:01 -7,6 C 93 % 1001 hPa 0,0 l/m 35,7 km/h (5 Bft) O-NO67.5 60 0 min 0 lux 0,00 min -8,5 C -26,0 C
01.12.2010 04:16 -7,8 C 92 % 1001 hPa 0,0 l/m 38,9 km/h (6 Bft) O-NO22.5 60 0 min 0 lux 0,00 min -8,9 C -27,2 C
01.12.2010 04:31 -7,8 C 93 % 1000 hPa 0,0 l/m 33,6 km/h (5 Bft) O-NO45 70 0 min 0 lux 0,00 min -8,7 C -25,6 C
01.12.2010 04:46 -7,9 C 92 % 1000 hPa 0,0 l/m 34,4 km/h (5 Bft) NO67.5 55 0 min 0 lux 0,00 min -9,0 C -26,0 C
01.12.2010 05:01 -7,9 C 93 % 1000 hPa 0,0 l/m 35,6 km/h (5 Bft) NO45 55 0 min 0 lux 0,00 min -8,8 C -26,4 C
01.12.2010 05:16 -8,1 C 94 % 1000 hPa 0,0 l/m 31,9 km/h (5 Bft) NO45 55 0 min 0 lux 0,00 min -8,9 C -25,5 C
01.12.2010 05:31 -8,3 C 93 % 1000 hPa 0,0 l/m 35,5 km/h (5 Bft) O-NO45 65 0 min 0 lux 0,00 min -9,2 C -27,0 C
01.12.2010 05:46 -8,4 C 93 % 999 hPa 0,0 l/m 33,5 km/h (5 Bft) NO45 50 0 min 0 lux 0,00 min -9,3 C -26,5 C
01.12.2010 06:01 -8,5 C 93 % 999 hPa 0,0 l/m 36,5 km/h (5 Bft) O-NO45 65 0 min 0 lux 0,00 min -9,4 C -27,6 C
01.12.2010 06:16 -8,7 C 93 % 999 hPa 0,0 l/m 33,7 km/h (5 Bft) NO45 55 0 min 0 lux 0,00 min -9,6 C -27,0 C
01.12.2010 06:31 -8,7 C 93 % 999 hPa 0,0 l/m 34,1 km/h (5 Bft) O-NO45 70 0 min 0 lux 0,00 min -9,6 C -27,1 C
01.12.2010 06:46 -8,8 C 93 % 999 hPa 0,0 l/m 35,3 km/h (5 Bft) O-NO45 60 0 min 0 lux 0,00 min -9,7 C -27,6 C
01.12.2010 07:01 -8,9 C 93 % 999 hPa 0,0 l/m 35,3 km/h (5 Bft) O-NO45 65 0 min 0 lux 0,00 min -9,8 C -27,8 C
01.12.2010 07:16 -9,0 C 93 % 999 hPa 0,0 l/m 38,7 km/h (5 Bft) O-NO45 70 0 min 0 lux 0,00 min -9,9 C -28,9 C
01.12.2010 07:31 -9,1 C 92 % 999 hPa 0,0 l/m 35,8 km/h (5 Bft) O-NO22.5 60 0 min 0 lux 0,00 min -10,2 C -28,2 C
01.12.2010 07:46 -9,1 C 92 % 999 hPa 0,0 l/m 34,8 km/h (5 Bft) O-NO45 75 0 min 0 lux 0,00 min -10,2 C -27,9 C
01.12.2010 08:01 -9,2 C 92 % 999 hPa 0,0 l/m 34,9 km/h (5 Bft) O67.5 80 0 min 85 lux 0,00 min -10,3 C -28,1 C
01.12.2010 08:17 -9,2 C 92 % 999 hPa 0,0 l/m 32,5 km/h (5 Bft) O-NO22.5 60 0 min 281 lux 0,00 min -10,3 C -27,3 C
01.12.2010 08:31 -9,1 C 93 % 999 hPa 0,0 l/m 29,2 km/h (5 Bft) NO45 55 0 min 666 lux 0,00 min -10,0 C -25,9 C
01.12.2010 08:46 -9,1 C 92 % 999 hPa 0,0 l/m 30,4 km/h (5 Bft) O-NO22.5 65 0 min 1,47 klux 0,00 min -10,2 C -26,4 C
01.12.2010 09:01 -9,1 C 92 % 998 hPa 0,0 l/m 32,3 km/h (5 Bft) NO45 50 0 min 1,90 klux 0,00 min -10,2 C -27,1 C
01.12.2010 09:16 -9,1 C 92 % 998 hPa 0,0 l/m 35,9 km/h (5 Bft) NO45 50 0 min 2,84 klux 0,00 min -10,2 C -28,3 C
01.12.2010 09:31 -8,9 C 92 % 999 hPa 0,0 l/m 27,5 km/h (4 Bft) O-NO45 60 0 min 4,38 klux 0,00 min -10,0 C -24,9 C
01.12.2010 09:47 -8,9 C 91 % 998 hPa 0,0 l/m 32,2 km/h (5 Bft) NO45 55 0 min 6,40 klux 0,00 min -10,1 C -26,7 C
01.12.2010 10:02 -8,8 C 91 % 998 hPa 0,0 l/m 30,9 km/h (5 Bft) O-NO45 65 0 min 7,33 klux 0,00 min -10,0 C -26,1 C
01.12.2010 10:16 -8,7 C 91 % 998 hPa 0,0 l/m 26,5 km/h (4 Bft) NO67.5 50 0 min 7,81 klux 0,00 min -9,9 C -24,2 C
01.12.2010 10:31 -8,8 C 90 % 998 hPa 0,0 l/m 28,1 km/h (4 Bft) O-NO45 60 0 min 7,92 klux 0,00 min -10,1 C -25,0 C
01.12.2010 10:46 -8,7 C 90 % 999 hPa 0,0 l/m 24,3 km/h (4 Bft) O-NO45 70 0 min 8,13 klux 0,00 min -10,0 C -23,2 C
01.12.2010 11:01 -8,7 C 89 % 998 hPa 0,0 l/m 27,3 km/h (4 Bft) O-NO45 60 0 min 10,8 klux 0,00 min -10,2 C -24,5 C
01.12.2010 11:17 -8,6 C 89 % 998 hPa 0,0 l/m 24,5 km/h (4 Bft) NO45 50 0 min 10,5 klux 0,00 min -10,1 C -23,1 C
01.12.2010 11:32 -8,6 C 89 % 998 hPa 0,0 l/m 20,6 km/h (4 Bft) O-NO45 70 0 min 9,5 klux 0,00 min -10,1 C -21,1 C
01.12.2010 11:46 -8,5 C 88 % 998 hPa 0,0 l/m 25,1 km/h (4 Bft) NO45 50 0 min 10,0 klux 0,00 min -10,1 C -23,3 C
01.12.2010 12:01 -8,4 C 89 % 998 hPa 0,0 l/m 24,6 km/h (4 Bft) NO45 50 0 min 10,3 klux 0,00 min -9,9 C -22,9 C
01.12.2010 12:16 -8,4 C 89 % 998 hPa 0,0 l/m 26,6 km/h (4 Bft) O-NO22.5 65 0 min 11,0 klux 0,00 min -9,9 C -23,8 C
01.12.2010 12:31 -8,3 C 88 % 998 hPa 0,0 l/m 27,2 km/h (4 Bft) O-NO22.5 70 0 min 12,5 klux 0,00 min -9,9 C -23,9 C
01.12.2010 12:47 -8,3 C 88 % 998 hPa 0,0 l/m 24,5 km/h (4 Bft) NO45 50 0 min 10,3 klux 0,00 min -9,9 C -22,7 C
01.12.2010 13:01 -8,4 C 88 % 998 hPa 0,0 l/m 22,4 km/h (4 Bft) NO45 45 0 min 9,1 klux 0,00 min -10,0 C -21,8 C
01.12.2010 13:16 -8,3 C 88 % 998 hPa 0,0 l/m 25,0 km/h (4 Bft) O-NO22.5 65 0 min 8,50 klux 0,00 min -9,9 C -23,0 C
01.12.2010 13:31 -8,5 C 89 % 998 hPa 0,0 l/m 28,3 km/h (4 Bft) NO22.5 55 0 min 6,65 klux 0,00 min -10,0 C -24,7 C
01.12.2010 13:46 -8,5 C 89 % 997 hPa 0,0 l/m 29,8 km/h (5 Bft) O-NO45 65 0 min 6,65 klux 0,00 min -10,0 C -25,3 C
01.12.2010 14:01 -8,4 C 90 % 997 hPa 0,0 l/m 27,8 km/h (4 Bft) NO45 55 0 min 6,79 klux 0,00 min -9,7 C -24,3 C
01.12.2010 14:17 -8,4 C 91 % 997 hPa 0,0 l/m 30,7 km/h (5 Bft) O-NO22.5 60 0 min 7,97 klux 0,00 min -9,6 C -25,5 C
01.12.2010 14:32 -8,3 C 91 % 997 hPa 0,0 l/m 30,6 km/h (5 Bft) O-NO22.5 65 0 min 8,12 klux 0,00 min -9,5 C -25,3 C
01.12.2010 14:46 -8,3 C 91 % 997 hPa 0,0 l/m 24,5 km/h (4 Bft) O-NO45 65 0 min 7,66 klux 0,00 min -9,5 C -22,7 C
01.12.2010 15:01 -8,4 C 91 % 997 hPa 0,0 l/m 30,3 km/h (5 Bft) NO22.5 40 0 min 6,61 klux 0,00 min -9,6 C -25,3 C
01.12.2010 15:16 -8,5 C 92 % 997 hPa 0,0 l/m 24,1 km/h (4 Bft) NO22.5 50 0 min 4,98 klux 0,00 min -9,6 C -22,8 C
01.12.2010 15:31 -8,6 C 92 % 997 hPa 0,0 l/m 23,3 km/h (4 Bft) O-NO22.5 60 0 min 2,54 klux 0,00 min -9,7 C -22,5 C
01.12.2010 15:46 -8,6 C 92 % 997 hPa 0,0 l/m 23,8 km/h (4 Bft) O-NO22.5 60 0 min 2,79 klux 0,00 min -9,7 C -22,8 C
01.12.2010 16:02 -8,7 C 92 % 997 hPa 0,0 l/m 28,8 km/h (4 Bft) NO22.5 50 0 min 2,07 klux 0,00 min -9,8 C -25,2 C
01.12.2010 16:17 -8,8 C 92 % 997 hPa 0,0 l/m 27,1 km/h (4 Bft) NO22.5 45 0 min 1,23 klux 0,00 min -9,9 C -24,6 C
01.12.2010 16:31 -8,8 C 93 % 997 hPa 0,0 l/m 23,1 km/h (4 Bft) NO45 55 0 min 813 lux 0,00 min -9,7 C -22,7 C
01.12.2010 16:46 -8,9 C 93 % 997 hPa 0,0 l/m 21,0 km/h (4 Bft) O-NO22.5 60 0 min 255 lux 0,00 min -9,8 C -21,7 C
01.12.2010 17:01 -9,1 C 93 % 997 hPa 0,0 l/m 22,1 km/h (4 Bft) NO22.5 55 0 min 71 lux 0,00 min -10,0 C -22,6 C
01.12.2010 17:16 -9,2 C 92 % 997 hPa 0,0 l/m 26,4 km/h (4 Bft) NO22.5 50 0 min 21 lux 0,00 min -10,3 C -24,8 C
01.12.2010 17:32 -9,4 C 93 % 998 hPa 0,0 l/m 18,3 km/h (3 Bft) O-NO45 60 0 min 4 lux 0,00 min -10,3 C -20,7 C
01.12.2010 17:47 -9,5 C 92 % 998 hPa 0,3 l/m 19,5 km/h (3 Bft) O-NO22.5 60 0 min 0 lux 15,00 min -10,6 C -21,6 C
01.12.2010 18:01 -9,6 C 92 % 998 hPa 0,0 l/m 18,4 km/h (3 Bft) NO45 55 0 min 0 lux 0,00 min -10,6 C -21,0 C
01.12.2010 18:16 -9,7 C 92 % 998 hPa 0,0 l/m 23,2 km/h (4 Bft) NO22.5 50 0 min 0 lux 0,00 min -10,7 C -24,0 C
01.12.2010 18:31 -9,8 C 92 % 998 hPa 0,0 l/m 18,5 km/h (3 Bft) NO45 50 0 min 0 lux 0,00 min -10,8 C -21,4 C
01.12.2010 18:46 -9,9 C 91 % 998 hPa 0,0 l/m 21,6 km/h (4 Bft) NO22.5 55 0 min 0 lux 0,00 min -11,1 C -23,4 C
01.12.2010 19:01 -9,9 C 92 % 998 hPa 0,0 l/m 20,9 km/h (4 Bft) O-NO45 60 0 min 0 lux 0,00 min -10,9 C -23,0 C
01.12.2010 19:17 -9,9 C 92 % 998 hPa 0,0 l/m 19,4 km/h (3 Bft) O-NO22.5 65 0 min 0 lux 0,00 min -10,9 C -22,1 C
01.12.2010 19:32 -9,9 C 92 % 999 hPa 0,3 l/m 16,3 km/h (3 Bft) NO45 55 0 min 0 lux 15,00 min -10,9 C -20,0 C
01.12.2010 19:46 -10,0 C 92 % 999 hPa 0,0 l/m 17,6 km/h (3 Bft) NO22.5 50 0 min 0 lux 0,00 min -11,0 C -21,0 C
01.12.2010 20:01 -10,1 C 92 % 999 hPa 0,0 l/m 19,8 km/h (3 Bft) O-NO45 60 0 min 0 lux 0,00 min -11,1 C -22,6 C
01.12.2010 20:16 -10,1 C 92 % 999 hPa 0,0 l/m 19,3 km/h (3 Bft) O-NO45 60 0 min 0 lux 0,00 min -11,1 C -22,2 C
01.12.2010 20:31 -10,1 C 92 % 999 hPa 0,0 l/m 18,4 km/h (3 Bft) NO22.5 45 0 min 0 lux 0,00 min -11,1 C -21,7 C
01.12.2010 20:46 -10,1 C 92 % 999 hPa 0,0 l/m 18,1 km/h (3 Bft) NO22.5 45 0 min 0 lux 0,00 min -11,1 C -21,5 C
01.12.2010 21:02 -10,0 C 92 % 999 hPa 0,0 l/m 17,1 km/h (3 Bft) NO22.5 50 0 min 0 lux 0,00 min -11,0 C -20,7 C
01.12.2010 21:17 -10,1 C 92 % 1000 hPa 0,3 l/m 14,8 km/h (3 Bft) NO22.5 35 0 min 0 lux 15,00 min -11,1 C -19,1 C
01.12.2010 21:31 -10,1 C 92 % 1000 hPa 0,0 l/m 16,5 km/h (3 Bft) O-NO45 60 0 min 0 lux 0,00 min -11,1 C -20,4 C
01.12.2010 21:46 -10,0 C 92 % 1000 hPa 0,0 l/m 15,7 km/h (3 Bft) O-NO45 65 0 min 0 lux 0,00 min -11,0 C -19,6 C
01.12.2010 22:01 -10,0 C 92 % 1000 hPa 0,0 l/m 17,4 km/h (3 Bft) NO22.5 55 0 min 0 lux 0,00 min -11,0 C -20,9 C
01.12.2010 22:16 -10,0 C 92 % 1000 hPa 0,0 l/m 12,5 km/h (3 Bft) NO22.5 55 0 min 0 lux 0,00 min -11,0 C -17,0 C
01.12.2010 22:32 -9,9 C 93 % 1000 hPa 0,0 l/m 14,5 km/h (3 Bft) O-NO45 65 0 min 0 lux 0,00 min -10,8 C -18,6 C
01.12.2010 22:47 -10,0 C 92 % 1000 hPa 0,0 l/m 11,8 km/h (2 Bft) O-NO22.5 70 0 min 0 lux 0,00 min -11,0 C -16,3 C
01.12.2010 23:01 -9,9 C 93 % 1000 hPa 0,0 l/m 10,9 km/h (2 Bft) O-NO22.5 65 0 min 0 lux 0,00 min -10,8 C -15,3 C
01.12.2010 23:16 -9,9 C 93 % 1000 hPa 0,0 l/m 11,4 km/h (2 Bft) O-NO 65 0 min 0 lux 0,00 min -10,8 C -15,8 C
01.12.2010 23:31 -9,9 C 93 % 1000 hPa 0,0 l/m 9,2 km/h (2 Bft) NO22.5 55 0 min 0 lux 0,00 min -10,8 C -13,5 C
01.12.2010 23:46 -9,9 C 93 % 1000 hPa 0,0 l/m 9,2 km/h (2 Bft) O-NO22.5 60 0 min 0 lux 0,00 min -10,8 C -13,5 C
01.12.2010 23:55 -9,9 C 93 % 1001 hPa 0,0 l/m 8,5 km/h (2 Bft) O-NO22.5 60 0 min 0 lux 0,00 min -10,8 C -12,7 C
_ Min-Zeit 20:01 11:46 13:46 - 23:55 - - - - - 20:01 07:16
Minimum _ -10,1 C 88 % 997 hPa - 8,5 km/h (2 Bft) - - - - - -11,1 C -28,9 C
_ Max-Zeit 00:01 05:16 00:01 17:47 03:16 - - 00:01 12:31 17:47 00:01 23:55
Maximum _ -6,0 C 94 % 1003 hPa 0,3 l/m 40,5 km/h
NO (6 Bft)
- - 0 min 12,5 klux 15,00 min -7,1 C -12,7 C
Durchschnitt _ -8,6 C 92 % 999 hPa #0,9 l/m 26,4 km/h (4 Bft) O-NO - #0 min. 2,24 klux #45 min. -9,8 C -23,4 C